Find Starlink 37994

NORAD ID: 69680 Int'l Des: 2026-145 Owner: SPXS Country: US Constellation: starlink operational
LEOCIRCULARRETROGRADE

現在のビュー

3D地球を読み込み中...

About Starlink 37994

Starlink 37994 (NORAD 69680) is a starlink constellation satellite (v2 mini) launched Jun 25, 2026 by SPXS of US. It operates in LEO, CIRCULAR, RETROGRADE orbit with a mass of 575.00 kg.

次回通過

Passes for default location (London). Set your location on the main map for personalized predictions.

高度履歴

Loading altitude history...

軌道要素

1 69680U 26145D 26235.53109552 .00016200 00000-0 50295-3 0 9998
2 69680 97.2852 82.5427 0001338 85.4606 274.6790 15.33450719 9255
Epoch: Aug 23, 2026 • Age: 15 hours

現在のステータス

高度 492.8 km
遠地点 / 近地点 N/A
速度 7.62 km/s
衛星直下点 -71.40°S, 71.55°E
打ち上げ日 Jun 25, 2026
運用期間 0.1 years
タイプ internet

技術仕様

分類 Payload
質量 575.00 kg
乾燥質量 530.00 kg
総質量 575.00 kg
長さ 0.30 m
直径 4.10 m
スパン 29.00 m
形状 Box + pan
製造者 SPXS
バスタイプ Starlink V2MO
フェーズステータス In Orbit
所有者/国 SPXS/US

Most Searched